Location: Unspecified
(38.0989°N, 0.6729°W)
Time: 13:59:25
(UTC+01:00)

X-37B - Visible Passes

Search period start: 24 January 2022 00:00
Search period end: 03 February 2022 00:00
Orbit: 334 x 337 km, 45.0° (Epoch: 11 January)

Date Brightness Start Highest point End Pass type
(mag) Time Alt. Az. Time Alt. Az. Time Alt. Az.
25 Jan 1.6 19:28:36 10° SSW 19:31:03 26° SE 19:31:25 25° SE visible
26 Jan 0.2 19:48:33 10° WSW 19:51:15 76° S 19:51:15 76° S visible
27 Jan 2.1 20:09:08 10° W 20:11:01 31° WNW 20:11:01 31° WNW visible
28 Jan 0.3 18:53:58 10° WSW 18:56:47 78° SSE 18:59:29 11° ENE visible
28 Jan 3.5 20:30:05 10° WNW 20:30:43 14° WNW 20:30:43 14° WNW visible
29 Jan 1.2 19:14:34 10° W 19:17:17 41° NNW 19:19:08 17° NE visible
30 Jan 2.0 19:35:30 10° WNW 19:37:55 24° NNW 19:38:45 21° NNE visible
31 Jan 2.4 19:56:28 10° NW 19:58:21 19° NNW 19:58:21 19° NNW visible
01 Feb 3.1 20:17:10 10° NW 20:17:57 14° NNW 20:17:57 14° NNW visible
02 Feb 2.2 19:01:53 10° NW 19:04:04 19° N 19:06:14 10° NE visible
